Location: Lafig�re
(44.4503°N, 4.0357°E)
Time: 05:56:44
(UTC+00:00)

Cosmos 1125 Rocket - Pass Details

Date: 25 January 2021
Orbit: 757 x 780 km, 74.0° (Epoch: 06 March)

Event Time Altitude Azimuth Distance (km) Brightness Sun altitude
Exits shadow 04:33:08 - 357° (N) 2,563 6.2 -27.8°
Reaches altitude 10° 04:33:51 10° 1° (N) 2,338 6.0 -27.7°
Maximum altitude 04:38:12 25° 57° (ENE) 1,537 5.5 -26.9°
Drops below altitude 10° 04:42:32 10° 112° (ESE) 2,332 6.9 -26.1°
Sets 04:45:19 0° 125° (SE) 3,256 7.6 -25.6°
